This is the latest recevied weather packets stored in our database for station/object DG1ROH. If no packets are shown the sender has not sent any weather packets the latest 10 day(s).
| Time | Temp. | Humidity | Pressure | Rain* | Wind** | Luminosity | Snow |
|---|---|---|---|---|---|---|---|
| 1778333465 | 16.67° C | 59% | 1019.6 hPa | 0 mm | - | 287 W/m² | - |
| 1778333345 | 16.11° C | 60% | 1019.6 hPa | 0 mm | - | 338 W/m² | - |
| 1778333222 | 16.11° C | 60% | 1019.6 hPa | 0 mm | - | 329 W/m² | - |
| 1778333103 | 16.11° C | 59% | 1019.6 hPa | 0 mm | - | 297 W/m² | - |
| 1778332983 | 16.11° C | 61% | 1019.6 hPa | 0 mm | - | 281 W/m² | - |
| 1778332863 | 16.11° C | 59% | 1019.6 hPa | 0 mm | - | 278 W/m² | - |
| 1778332742 | 16.11° C | 59% | 1019.7 hPa | 0 mm | - | 292 W/m² | - |
| 1778332621 | 16.11° C | 61% | 1019.7 hPa | 0 mm | - | 271 W/m² | - |
| 1778332503 | 16.11° C | 59% | 1019.7 hPa | 0 mm | - | 243 W/m² | - |
| 1778332381 | 16.11° C | 60% | 1019.7 hPa | 0 mm | - | 232 W/m² | - |
| 1778332260 | 15.56° C | 59% | 1019.8 hPa | 0 mm | - | 225 W/m² | - |
| 1778332141 | 15.56° C | 57% | 1019.9 hPa | 0 mm | - | 223 W/m² | - |
| 1778332021 | 15.56° C | 57% | 1019.8 hPa | 0 mm | - | 221 W/m² | - |
| 1778331900 | 15.56° C | 57% | 1019.9 hPa | 0 mm | - | 220 W/m² | - |
| 1778331779 | 15.56° C | 57% | 1019.8 hPa | 0 mm | - | 221 W/m² | - |
| 1778331659 | 15.56° C | 57% | 1019.8 hPa | 0 mm | - | 225 W/m² | - |
| 1778331539 | 15.56° C | 58% | 1019.9 hPa | 0 mm | - | 227 W/m² | - |
| 1778331418 | 15.56° C | 61% | 1020 hPa | 0 mm | - | 229 W/m² | - |
| 1778331297 | 15.56° C | 59% | 1020 hPa | 0 mm | - | 230 W/m² | - |
| 1778331175 | 15.56° C | 63% | 1020 hPa | 0 mm | - | 227 W/m² | - |
| 1778331055 | 15.56° C | 60% | 1020.1 hPa | 0 mm | - | 225 W/m² | - |
| 1778330933 | 15.56° C | 58% | 1020.2 hPa | 0 mm | - | 223 W/m² | - |
| 1778330813 | 15.56° C | 59% | 1020.1 hPa | 0 mm | - | 214 W/m² | - |
| 1778330693 | 15.56° C | 62% | 1020.2 hPa | 0 mm | - | 199 W/m² | - |
| 1778330571 | 15.56° C | 62% | 1020.2 hPa | 0 mm | - | 188 W/m² | - |
* Rain latest hour (hover to see other rain measurements)
** Current wind speed in m/s (hover to see current wind gust speed)